Home > Weather > Ny-Ålesund > Past weeks

Flag for Norway Past Weather in Ny-Ålesund, Svalbard, Norway — Yesterday and Last 2 Weeks

Now
34 °F

Chilly.


Feels Like: 34 °F
Forecast: 34 / 40 °F
Wind: 2 mph from Northwest

Location: Ny Alesund

Current Time: May 29, 2016 at 8:01:15 AM

Latest Report: May 29, 2016 at 7:00 AM


Visibility: N/A

Pressure: 30.35 "Hg

Humidity: 76%

Dew Point: 27 °F

Location of Ny-ÅlesundLocation

Past Weather in Ny-Ålesund — Graph

°F

Ny-Ålesund Temperature Yesterday

Maximum temperature yesterday: 35 °F (at 2:00 AM)
Minimum temperature yesterday: 33 °F (at 6:00 AM)
Average temperature yesterday: 34 °F

High & Low Weather Summary for the Past Weeks

 TemperatureHumidityPressure
High42 °F (May 24, 11:00 AM)87% (May 14, 8:00 PM)30.34 "Hg (May 14, 8:00 PM)
Low28 °F (May 19, 5:00 AM)45% (May 19, 2:00 PM)29.38 "Hg (May 18, 6:00 AM)
Average34 °F69%29.79 "Hg
* Reported May 14 6:00 AM — May 29 6:00 AM, Ny-Ålesund, Weather by CustomWeather, © 2016

Note: Actual official high and low records may vary slightly from our data, if they occured in-between our weather recording intervals... More about our weather records

Advertising

Ny-Ålesund Weather History for the Previous 24 Hours

Scroll right to see more
 ConditionsComfort  
Time TempWeatherWind HumidityBarometerVisibility
6:00 AM
Sun, May 29
34 °FChilly.3 mph76%30.34 "HgN/A
5:00 AM34 °FChilly.5 mph80%30.33 "HgN/A
4:00 AM34 °FChilly.5 mph80%30.31 "HgN/A
3:00 AM34 °FChilly.6 mph81%30.29 "HgN/A
2:00 AM34 °FChilly.5 mph81%30.27 "HgN/A
1:00 AM33 °FChilly.6 mph82%30.25 "HgN/A
12:00 AM34 °FChilly.5 mph83%30.22 "HgN/A
11:00 PM
Sat, May 28
34 °FChilly.6 mph83%30.19 "HgN/A
10:00 PM34 °FChilly.5 mph81%30.17 "HgN/A
9:00 PM34 °FChilly.6 mph85%30.14 "HgN/A
8:00 PM34 °FSnow flurries. Overcast.7 mph84%30.11 "Hg19 mi
6:00 PM34 °FChilly.7 mph82%30.05 "HgN/A
5:00 PM34 °FChilly.8 mph83%30.02 "HgN/A
4:00 PM34 °FChilly.7 mph83%29.99 "HgN/A
3:00 PM34 °FChilly.7 mph83%29.96 "HgN/A
2:00 PM34 °FSprinkles. Overcast.8 mph83%29.92 "Hg12 mi
1:00 PM34 °FChilly.10 mph81%29.89 "HgN/A
12:00 PM34 °FChilly.7 mph79%29.85 "HgN/A
11:00 AM34 °FChilly.7 mph79%29.83 "HgN/A
10:00 AM34 °FChilly.6 mph81%29.79 "HgN/A
9:00 AM34 °FChilly.7 mph81%29.76 "HgN/A
8:00 AM34 °FSprinkles. Overcast.8 mph76%29.72 "Hg16 mi
Weather by CustomWeather, © 2016

See weather overviewHow to use our weather pages